Date,TemperatureHighF,TemperatureAvgF,TemperatureLowF,DewpointHighF,DewpointAvgF,DewpointLowF,HumidityHigh,HumidityAvg,HumidityLow,PressureMaxIn,PressureMinIn,WindSpeedMaxMPH,WindSpeedAvgMPH,GustSpeedMaxMPH,PrecipitationSumIn
2013-5-1,78.8,64.0,47.1,61.9,55.3,46.8,99,76,51,30.08,29.91,7,2,0,0.00
2013-5-2,77.4,64.3,49.6,57.3,50.8,43.0,98,64,45,30.11,29.99,8,2,0,0.00
2013-5-3,74.7,63.8,52.2,55.2,45.6,37.8,77,54,27,29.99,29.92,9,3,0,0.00
2013-5-4,71.6,61.1,51.4,48.4,42.9,37.5,84,53,31,30.00,29.91,9,3,0,0.01
2013-5-5,73.4,60.2,45.3,48.3,41.3,38.0,86,53,29,29.99,29.86,9,3,0,0.00
2013-5-6,74.1,60.1,44.4,51.8,44.2,38.1,84,57,41,29.93,29.82,8,2,0,0.00
2013-5-7,78.1,63.3,46.9,56.5,48.0,38.3,77,59,39,29.92,29.82,8,2,0,0.00
2013-5-8,81.1,64.8,51.4,57.2,49.0,39.8,80,58,35,29.86,29.75,8,2,0,0.00
2013-5-9,83.1,66.2,48.0,56.4,48.2,41.4,99,58,27,29.81,29.71,7,2,0,0.00
2013-5-10,66.0,56.1,41.0,63.3,51.2,39.1,99,85,41,29.74,29.56,10,3,0,0.43
2013-5-11,60.3,46.9,37.4,47.5,41.6,33.0,99,83,59,29.71,29.54,12,4,0,0.01
2013-5-12,50.9,41.4,34.2,34.2,30.3,24.6,86,66,46,29.91,29.69,12,5,0,0.00
2013-5-13,58.5,42.4,27.7,31.3,26.1,23.0,86,55,29,29.99,29.90,7,2,0,0.00
2013-5-14,65.3,51.6,38.3,46.5,40.2,31.0,90,67,45,29.94,29.57,9,3,0,0.00
2013-5-15,84.0,67.6,49.8,61.3,51.3,45.1,99,62,32,29.60,29.41,9,3,0,0.02
2013-5-16,81.7,66.0,50.7,50.6,45.2,38.7,77,49,28,29.87,29.59,7,2,0,0.00
2013-5-17,70.5,57.5,45.5,48.8,43.3,39.1,83,61,41,30.01,29.87,6,2,0,0.01
2013-5-18,79.5,64.3,52.2,52.3,46.6,43.1,77,55,30,30.01,29.88,9,2,0,0.00
2013-5-19,86.0,69.1,50.2,66.6,57.5,46.0,87,68,47,29.89,29.71,7,2,0,0.00
2013-5-20,87.8,73.4,56.5,72.2,63.8,56.2,99,74,46,29.78,29.60,14,3,0,0.00
2013-5-21,85.6,73.9,61.9,69.3,63.8,60.2,97,73,47,29.65,29.54,9,3,0,0.15
2013-5-22,80.4,69.7,63.1,67.2,63.6,59.7,99,82,54,29.57,29.44,12,5,0,0.02
2013-5-23,64.2,51.5,40.5,60.3,49.1,36.8,97,91,82,29.97,29.51,15,5,0,0.11
2013-5-24,57.0,44.5,36.5,38.0,35.0,32.0,91,71,45,30.19,29.97,11,4,0,0.00
2013-5-25,65.3,49.0,31.3,41.0,35.7,30.7,99,65,34,30.24,30.13,7,2,0,0.00
2013-5-26,70.9,52.6,34.5,41.9,35.9,32.2,96,59,32,30.19,30.08,7,2,0,0.00
2013-5-27,64.6,50.1,33.4,49.9,40.5,32.1,99,74,32,30.11,29.88,8,2,0,0.46
2013-5-28,70.2,58.6,50.0,69.0,58.2,49.7,99,99,93,29.88,29.65,5,1,0,2.15
2013-5-29,85.1,72.7,62.8,67.9,65.7,62.2,99,80,52,29.83,29.62,9,3,0,0.04
2013-5-30,87.4,70.9,59.9,71.9,65.4,59.2,98,84,56,29.91,29.83,8,2,0,0.39
2013-5-31,81.7,71.8,62.6,68.8,65.8,61.4,97,82,65,29.84,29.69,11,4,0,0.50